Location: Stara Lesna
(49.1528°N, 20.2911°E)
Time: 21:57:18
(UTC+02:00)

Cosmos 1782 Rocket - Pass Details

Date: 21 September 2019
Orbit: 607 x 632 km, 82.5° (Epoch: 16 October)

Event Time Altitude Azimuth Distance (km) Brightness Sun altitude
Rises 05:12:28 0° 349° (NNW) 2,888 7.1 -12.2°
Reaches altitude 10° 05:14:41 10° 348° (NNW) 1,981 6.2 -11.9°
Maximum altitude 05:19:04 78° 263° (W) 634 3.5 -11.2°
Drops below altitude 10° 05:23:27 10° 177° (S) 1,979 6.0 -10.5°
Sets 05:25:40 0° 176° (S) 2,884 6.9 -10.1°
